Location: Our Prairie Sky
(41.4667°N, 87.7000°W)
Time: 04:37:19
(UTC-05:00)

Hubble Space Telescope - Visible Passes

Search period start: 15 September 2019 00:00
Search period end: 25 September 2019 00:00
Orbit: 536 x 540 km, 28.5° (Epoch: 14 September)

Date Brightness Start Highest point End Pass type
(mag) Time Alt. Az. Time Alt. Az. Time Alt. Az.
15 Sep 3.1 05:11:05 10° SSW 05:12:33 12° S 05:14:07 10° SSE visible
16 Sep 3.0 05:01:10 12° S 05:01:51 13° S 05:03:40 10° SSE visible
17 Sep 3.0 04:51:16 13° S 04:51:16 13° S 04:53:07 10° SSE visible
18 Sep 3.1 04:41:23 13° SSE 04:41:23 13° SSE 04:42:29 10° SSE visible
19 Sep 3.3 04:31:32 11° SSE 04:31:32 11° SSE 04:31:47 10° SSE visible
